| time (UTC) | temp F | wind direction | speed knots | gust knots | rain 1hr in | rain 24hr in | rain mn in | humidity % | barometer mb |
| 20260506175929 | 57 | 7 | 1.7 | 1.7 | 0.00 | 0.58 | 0.58 | 99 | 1005.4 |
| 20260506175426 | 57 | 165 | 0.9 | 1.7 | 0.00 | 0.58 | 0.58 | 99 | 1005.3 |
| 20260506174923 | 57 | 0 | 0.9 | 1.7 | 0.05 | 0.58 | 0.58 | 99 | 1005.2 |
| 20260506174421 | 57 | 156 | 0.9 | 2.6 | 0.00 | 0.57 | 0.57 | 99 | 1005.3 |
| 20260506173917 | 57 | 273 | 0.9 | 1.7 | 0.07 | 0.57 | 0.57 | 99 | 1005.2 |
| 20260506173414 | 56 | 154 | 0.0 | 1.7 | 0.07 | 0.57 | 0.57 | 99 | 1005.4 |
| 20260506172911 | 56 | 178 | 0.9 | 2.6 | 0.05 | 0.56 | 0.56 | 99 | 1005.3 |
| 20260506172408 | 56 | 176 | 0.9 | 1.7 | 0.05 | 0.56 | 0.56 | 99 | 1005.5 |
| 20260506171905 | 56 | 249 | 0.0 | 0.0 | 0.07 | 0.55 | 0.55 | 99 | 1005.4 |
| 20260506171402 | 55 | 193 | 0.0 | 2.6 | 0.07 | 0.55 | 0.55 | 99 | 1005.6 |
| 20260506170900 | 55 | 231 | 0.9 | 1.7 | 0.12 | 0.55 | 0.55 | 99 | 1005.4 |
| 20260506170355 | 55 | 186 | 1.7 | 3.5 | 0.12 | 0.54 | 0.54 | 99 | 1005.7 |
| 20260506165849 | 55 | 169 | 0.9 | 0.9 | 0.07 | 0.53 | 0.53 | 99 | 1005.6 |
| 20260506165347 | 55 | 114 | 0.9 | 1.7 | 0.00 | 0.52 | 0.52 | 99 | 1005.7 |
| 20260506164843 | 55 | 275 | 1.7 | 2.6 | 0.00 | 0.52 | 0.52 | 99 | 1005.7 |
| 20260506164340 | 55 | 149 | 0.0 | 0.0 | 0.00 | 0.52 | 0.52 | 99 | 1005.6 |
| 20260506163838 | 55 | 138 | 1.7 | 1.7 | 0.05 | 0.52 | 0.52 | 99 | 1005.5 |
| 20260506163332 | 55 | 115 | 1.7 | 2.6 | 0.00 | 0.51 | 0.51 | 99 | 1005.6 |
| 20260506162827 | 55 | 106 | 0.9 | 1.7 | 0.07 | 0.51 | 0.51 | 99 | 1005.8 |
| 20260506162325 | 55 | 112 | 0.0 | 0.9 | 0.07 | 0.51 | 0.51 | 99 | 1005.6 |
| 20260506161822 | 55 | 147 | 2.6 | 2.6 | 0.05 | 0.50 | 0.50 | 99 | 1005.6 |
| 20260506161320 | 55 | 210 | 1.7 | 2.6 | 0.17 | 0.50 | 0.50 | 99 | 1005.8 |
| 20260506160817 | 55 | 333 | 0.0 | 0.0 | 0.19 | 0.49 | 0.49 | 99 | 1006.0 |
| 20260506160313 | 55 | 106 | 1.7 | 1.7 | 0.14 | 0.47 | 0.47 | 99 | 1006.0 |
| 20260506155812 | 55 | 214 | 0.0 | 1.7 | 0.12 | 0.46 | 0.46 | 99 | 1006.0 |
| 20260506155308 | 55 | 288 | 0.9 | 1.7 | 0.12 | 0.45 | 0.45 | 99 | 1005.8 |
| 20260506153416 | 55 | 259 | 0.0 | 0.9 | 0.19 | 0.38 | 0.38 | 99 | 1006.0 |
| 20260506152913 | 55 | 228 | 1.7 | 1.7 | 0.12 | 0.37 | 0.37 | 99 | 1005.9 |
| 20260506152410 | 55 | 108 | 0.9 | 0.9 | 0.05 | 0.35 | 0.35 | 99 | 1005.9 |
| 20260506151909 | 55 | 226 | 0.0 | 1.7 | 0.12 | 0.35 | 0.35 | 99 | 1005.9 |
| 20260506151405 | 55 | 207 | 0.0 | 0.9 | 0.07 | 0.34 | 0.34 | 99 | 1005.8 |
| 20260506150903 | 55 | 244 | 0.9 | 1.7 | 0.07 | 0.33 | 0.33 | 99 | 1005.7 |
| 20260506150359 | 55 | 200 | 0.0 | 0.9 | 0.07 | 0.33 | 0.33 | 99 | 1005.9 |
| 20260506145856 | 55 | 280 | 0.9 | 1.7 | 0.05 | 0.32 | 0.32 | 99 | 1005.7 |
| 20260506145352 | 55 | 230 | 0.0 | 0.0 | 0.12 | 0.32 | 0.32 | 99 | 1005.7 |
| 20260506144850 | 55 | 85 | 0.9 | 2.6 | 0.07 | 0.31 | 0.31 | 99 | 1005.7 |
| 20260506144346 | 55 | 224 | 0.0 | 1.7 | 0.05 | 0.30 | 0.30 | 99 | 1005.6 |
| 20260506143844 | 55 | 70 | 2.6 | 3.5 | 0.05 | 0.30 | 0.30 | 99 | 1005.7 |
| 20260506143341 | 55 | 214 | 0.0 | 2.6 | 0.07 | 0.29 | 0.29 | 99 | 1005.6 |
| 20260506142839 | 55 | 228 | 0.0 | 2.6 | 0.12 | 0.29 | 0.29 | 99 | 1005.7 |
| 20260506142337 | 55 | 62 | 0.0 | 0.9 | 0.12 | 0.28 | 0.28 | 99 | 1005.8 |
| 20260506141835 | 55 | 228 | 0.0 | 2.6 | 0.07 | 0.27 | 0.27 | 99 | 1006.1 |
| 20260506141333 | 54 | 70 | 0.0 | 0.9 | 0.12 | 0.26 | 0.26 | 99 | 1006.2 |
| 20260506140831 | 54 | 27 | 1.7 | 2.6 | 0.17 | 0.26 | 0.26 | 99 | 1006.2 |
| 20260506140327 | 54 | 199 | 1.7 | 1.7 | 0.12 | 0.24 | 0.24 | 99 | 1006.3 |
| 20260506135824 | 54 | 186 | 1.7 | 5.2 | 0.12 | 0.23 | 0.23 | 99 | 1006.6 |
| 20260506135321 | 54 | 199 | 0.0 | 0.9 | 0.12 | 0.22 | 0.22 | 99 | 1006.8 |
| 20260506134817 | 54 | 80 | 0.0 | 1.7 | 0.07 | 0.21 | 0.21 | 99 | 1006.6 |
| 20260506134313 | 54 | 230 | 0.0 | 0.0 | 0.12 | 0.20 | 0.20 | 99 | 1006.8 |
| 20260506133811 | 54 | 226 | 0.0 | 0.0 | 0.12 | 0.19 | 0.19 | 99 | 1006.9 |
| 20260506133308 | 53 | 136 | 0.0 | 0.0 | 0.12 | 0.18 | 0.18 | 99 | 1007.0 |
| 20260506132804 | 54 | 220 | 0.0 | 0.0 | 0.12 | 0.17 | 0.17 | 99 | 1007.1 |
| 20260506132302 | 54 | 220 | 0.0 | 0.0 | 0.12 | 0.16 | 0.16 | 99 | 1007.2 |
| 20260506131800 | 54 | 222 | 0.0 | 0.0 | 0.12 | 0.14 | 0.14 | 99 | 1007.2 |
| 20260506131255 | 53 | 223 | 0.0 | 0.0 | 0.19 | 0.14 | 0.14 | 99 | 1007.3 |
| 20260506130752 | 53 | 220 | 0.0 | 0.0 | 0.12 | 0.12 | 0.12 | 99 | 1007.1 |
| 20260506130249 | 53 | 219 | 0.0 | 0.0 | 0.12 | 0.11 | 0.11 | 99 | 1007.2 |
| 20260506125747 | 53 | 219 | 0.0 | 0.0 | 0.07 | 0.10 | 0.10 | 99 | 1007.2 |
| 20260506125244 | 53 | 219 | 0.0 | 0.0 | 0.07 | 0.09 | 0.09 | 99 | 1006.6 |
| 20260506124743 | 53 | 219 | 0.0 | 0.0 | 0.07 | 0.09 | 0.09 | 99 | 1006.6 |
| 20260506124240 | 53 | 218 | 0.0 | 0.0 | 0.05 | 0.08 | 0.08 | 99 | 1006.9 |
| 20260506123738 | 53 | 218 | 0.0 | 0.0 | 0.05 | 0.08 | 0.08 | 99 | 1007.0 |
| 20260506123237 | 53 | 218 | 0.0 | 0.0 | 0.00 | 0.07 | 0.07 | 99 | 1006.6 |
| 20260506122732 | 53 | 218 | 0.0 | 0.0 | 0.07 | 0.07 | 0.07 | 99 | 1006.9 |
| 20260506122229 | 53 | 218 | 0.0 | 0.0 | 0.07 | 0.07 | 0.07 | 99 | 1006.6 |
| 20260506121728 | 53 | 218 | 0.0 | 0.0 | 0.00 | 0.06 | 0.06 | 99 | 1006.9 |
| 20260506121225 | 53 | 218 | 0.0 | 0.0 | 0.00 | 0.06 | 0.06 | 99 | 1006.9 |
| 20260506120722 | 53 | 218 | 0.0 | 0.0 | 0.00 | 0.06 | 0.06 | 99 | 1007.1 |
| 20260506120219 | 53 | 218 | 0.0 | 0.0 | 0.05 | 0.06 | 0.06 | 99 | 1007.2 |
| 20260506115717 | 53 | 218 | 0.0 | 0.0 | 0.00 | 0.05 | 0.05 | 99 | 1007.2 |
| 20260506115215 | 52 | 218 | 0.0 | 0.0 | 0.07 | 0.05 | 0.05 | 99 | 1007.0 |
| 20260506114712 | 52 | 218 | 0.0 | 0.0 | 0.07 | 0.05 | 0.05 | 99 | 1007.2 |
| 20260506114210 | 53 | 218 | 0.0 | 0.0 | 0.05 | 0.04 | 0.04 | 99 | 1007.0 |
| 20260506113708 | 53 | 218 | 0.0 | 0.0 | 0.12 | 0.04 | 0.04 | 99 | 1007.3 |
| 20260506113205 | 53 | 216 | 0.0 | 0.0 | 0.12 | 0.03 | 0.03 | 99 | 1007.1 |
| 20260506112701 | 53 | 216 | 0.0 | 0.0 | 0.12 | 0.02 | 0.02 | 99 | 1007.2 |
| 20260506112159 | 53 | 217 | 0.0 | 0.0 | 0.07 | 0.01 | 0.01 | 99 | 1007.2 |
| 20260506111657 | 53 | 217 | 0.0 | 0.0 | 0.00 | 0.00 | 0.00 | 98 | 1007.5 |
| 20260506111154 | 53 | 217 | 0.0 | 0.0 | 0.00 | 0.00 | 0.00 | 98 | 1007.4 |
| 20260506110651 | 53 | 217 | 0.0 | 0.0 | 0.00 | 0.00 | 0.00 | 98 | 1007.2 |
| 20260506110149 | 53 | 217 | 0.0 | 0.0 | 0.00 | 0.00 | 0.00 | 97 | 1007.1 |
| 20260506105645 | 53 | 217 | 0.0 | 0.0 | 0.05 | 0.03 | 0.03 | 97 | 1007.0 |
| 20260506105142 | 53 | 217 | 0.0 | 0.0 | 0.05 | 0.03 | 0.03 | 96 | 1007.0 |
| 20260506104641 | 53 | 217 | 0.0 | 0.0 | 0.00 | 0.02 | 0.02 | 96 | 1006.8 |
| 20260506104138 | 53 | 217 | 0.0 | 0.0 | 0.00 | 0.02 | 0.02 | 96 | 1006.8 |
| 20260506103635 | 53 | 218 | 0.0 | 0.0 | 0.00 | 0.02 | 0.02 | 95 | 1006.8 |
| 20260506103132 | 53 | 218 | 0.0 | 0.0 | 0.00 | 0.02 | 0.02 | 94 | 1006.8 |
| 20260506102630 | 53 | 218 | 0.0 | 0.0 | 0.00 | 0.02 | 0.02 | 93 | 1006.9 |
| 20260506102127 | 53 | 218 | 0.0 | 0.0 | 0.00 | 0.02 | 0.02 | 92 | 1006.8 |
| 20260506101623 | 54 | 218 | 0.0 | 0.0 | 0.00 | 0.02 | 0.02 | 91 | 1006.8 |
| 20260506101120 | 54 | 217 | 0.0 | 0.0 | 0.00 | 0.02 | 0.02 | 88 | 1006.9 |
| 20260506100619 | 55 | 216 | 0.0 | 0.0 | 0.00 | 0.02 | 0.02 | 87 | 1006.9 |
| 20260506100116 | 55 | 206 | 0.0 | 0.0 | 0.00 | 0.02 | 0.02 | 87 | 1006.9 |
| 20260506095615 | 55 | 232 | 0.0 | 0.0 | 0.00 | 0.02 | 0.02 | 84 | 1006.8 |
| 20260506095111 | 56 | 232 | 0.0 | 0.0 | 0.00 | 0.02 | 0.02 | 82 | 1006.8 |
| 20260506094609 | 56 | 233 | 0.0 | 0.0 | 0.00 | 0.02 | 0.02 | 79 | 1006.6 |
| 20260506094106 | 56 | 233 | 0.0 | 0.0 | 0.00 | 0.02 | 0.02 | 77 | 1006.6 |
| 20260506093605 | 57 | 212 | 0.0 | 0.0 | 0.00 | 0.02 | 0.02 | 77 | 1006.5 |
| 20260506093102 | 57 | 219 | 0.0 | 0.0 | 0.00 | 0.02 | 0.02 | 75 | 1006.5 |
| 20260506092600 | 57 | 232 | 0.0 | 0.0 | 0.00 | 0.02 | 0.02 | 75 | 1006.5 |
| 20260506092056 | 57 | 188 | 0.0 | 0.0 | 0.00 | 0.02 | 0.02 | 73 | 1006.5 |
| 20260506091554 | 58 | 213 | 0.0 | 0.0 | 0.00 | 0.02 | 0.02 | 73 | 1006.8 |
| 20260506091052 | 58 | 227 | 0.0 | 0.0 | 0.00 | 0.02 | 0.02 | 72 | 1006.6 |
| 20260506090549 | 58 | 218 | 0.0 | 0.0 | 0.00 | 0.02 | 0.02 | 74 | 1006.9 |
| 20260506090045 | 58 | 210 | 0.0 | 0.0 | 0.00 | 0.02 | 0.02 | 73 | 1006.8 |
| 20260506085542 | 58 | 286 | 0.0 | 0.0 | 0.00 | 0.02 | 0.02 | 70 | 1006.9 |
| 20260506085039 | 57 | 169 | 0.0 | 0.0 | 0.00 | 0.02 | 0.02 | 71 | 1007.0 |
| 20260506084536 | 57 | 235 | 0.0 | 0.9 | 0.00 | 0.02 | 0.02 | 71 | 1007.1 |
| 20260506084032 | 57 | 192 | 0.0 | 0.0 | 0.00 | 0.02 | 0.02 | 74 | 1007.0 |
| 20260506083529 | 57 | 216 | 0.0 | 0.0 | 0.00 | 0.02 | 0.02 | 75 | 1006.8 |
| 20260506083026 | 57 | 202 | 0.0 | 0.0 | 0.00 | 0.02 | 0.02 | 76 | 1006.8 |
| 20260506082523 | 57 | 218 | 0.0 | 0.0 | 0.00 | 0.02 | 0.02 | 77 | 1006.8 |
| 20260506082019 | 57 | 226 | 0.0 | 0.0 | 0.00 | 0.02 | 0.02 | 76 | 1006.9 |
| 20260506081517 | 57 | 190 | 0.0 | 0.0 | 0.00 | 0.02 | 0.02 | 77 | 1006.9 |
| 20260506081015 | 57 | 211 | 0.0 | 0.9 | 0.00 | 0.02 | 0.02 | 76 | 1006.9 |
| 20260506080512 | 56 | 206 | 0.0 | 0.9 | 0.00 | 0.02 | 0.02 | 75 | 1007.1 |
| 20260506073455 | 55 | 229 | 0.0 | 0.0 | 0.00 | 0.02 | 0.02 | 83 | 1007.3 |
| 20260506072952 | 54 | 200 | 0.0 | 0.0 | 0.00 | 0.02 | 0.02 | 84 | 1007.3 |
| 20260506072449 | 54 | 213 | 0.0 | 0.0 | 0.00 | 0.02 | 0.02 | 87 | 1007.4 |
| 20260506071947 | 53 | 193 | 0.0 | 0.0 | 0.00 | 0.02 | 0.02 | 89 | 1007.6 |
| 20260506071445 | 53 | 210 | 0.0 | 0.0 | 0.00 | 0.02 | 0.02 | 89 | 1007.3 |
| 20260506070942 | 53 | 215 | 0.0 | 0.0 | 0.00 | 0.02 | 0.02 | 91 | 1007.3 |
| 20260506070439 | 52 | 199 | 0.0 | 0.0 | 0.00 | 0.02 | 0.02 | 94 | 1007.4 |
| 20260506062416 | 50 | 202 | 0.0 | 0.0 | 0.00 | 0.02 | 0.02 | 99 | 1007.9 |
| 20260506061912 | 50 | 201 | 0.0 | 0.0 | 0.00 | 0.02 | 0.02 | 99 | 1007.9 |
| 20260506061409 | 50 | 201 | 0.0 | 0.0 | 0.00 | 0.02 | 0.02 | 99 | 1007.9 |
| 20260506060907 | 50 | 201 | 0.0 | 0.0 | 0.00 | 0.02 | 0.02 | 99 | 1008.1 |
| 20260506060404 | 50 | 201 | 0.0 | 0.0 | 0.00 | 0.02 | 0.02 | 99 | 1008.2 |
| 20260506051336 | 51 | 209 | 0.0 | 0.0 | 0.00 | 0.02 | 0.02 | 99 | 1008.6 |
| 20260506050834 | 51 | 209 | 0.0 | 0.0 | 0.00 | 0.02 | 0.02 | 99 | 1008.7 |
| 20260506050331 | 51 | 219 | 0.0 | 0.0 | 0.00 | 0.02 | 0.02 | 98 | 1008.8 |
| 20260506044822 | 51 | 216 | 0.0 | 0.0 | 0.00 | 0.02 | 0.02 | 98 | 1008.9 |
| 20260506044320 | 52 | 216 | 0.0 | 0.0 | 0.00 | 0.02 | 0.02 | 97 | 1008.8 |
| 20260506043816 | 52 | 216 | 0.0 | 0.0 | 0.00 | 0.02 | 0.02 | 97 | 1009.1 |
| 20260506043314 | 52 | 216 | 0.0 | 0.0 | 0.00 | 0.02 | 0.02 | 96 | 1009.2 |
| 20260506042812 | 52 | 216 | 0.0 | 0.0 | 0.00 | 0.02 | 0.02 | 96 | 1009.2 |
| 20260506042310 | 53 | 216 | 0.0 | 0.0 | 0.00 | 0.02 | 0.02 | 95 | 1009.1 |
| 20260506041809 | 53 | 216 | 0.0 | 0.0 | 0.00 | 0.02 | 0.02 | 95 | 1009.3 |
| 20260506041305 | 53 | 217 | 0.0 | 0.0 | 0.00 | 0.02 | 0.02 | 94 | 1009.1 |
| 20260506040803 | 53 | 217 | 0.0 | 0.0 | 0.00 | 0.02 | 0.02 | 94 | 1009.2 |
| 20260506040300 | 53 | 217 | 0.0 | 0.0 | 0.00 | 0.02 | 0.02 | 92 | 1009.3 |
| 20260506035756 | 54 | 217 | 0.0 | 0.0 | 0.00 | 0.02 | 0.02 | 92 | 1009.2 |
| 20260506035254 | 54 | 217 | 0.0 | 0.0 | 0.00 | 0.02 | 0.02 | 92 | 1009.3 |
| 20260506034750 | 54 | 238 | 0.0 | 0.0 | 0.00 | 0.02 | 0.02 | 91 | 1009.2 |
| 20260506034248 | 55 | 208 | 0.0 | 0.0 | 0.00 | 0.02 | 0.02 | 90 | 1009.3 |
| 20260506033744 | 55 | 196 | 0.0 | 0.0 | 0.00 | 0.02 | 0.02 | 89 | 1009.1 |
| 20260506033242 | 55 | 230 | 0.0 | 0.0 | 0.00 | 0.02 | 0.02 | 88 | 1009.4 |
| 20260506032739 | 55 | 230 | 0.0 | 0.0 | 0.00 | 0.02 | 0.02 | 89 | 1009.3 |
| 20260506032236 | 55 | 230 | 0.0 | 0.0 | 0.00 | 0.02 | 0.02 | 90 | 1009.3 |
| 20260506031732 | 55 | 230 | 0.0 | 0.0 | 0.00 | 0.02 | 0.02 | 90 | 1009.1 |
| 20260506031229 | 55 | 230 | 0.0 | 0.0 | 0.00 | 0.02 | 0.02 | 91 | 1009.0 |
| 20260506030727 | 56 | 231 | 0.0 | 0.0 | 0.00 | 0.02 | 0.02 | 89 | 1009.0 |
| 20260506030225 | 56 | 231 | 0.0 | 0.0 | 0.00 | 0.02 | 0.02 | 88 | 1008.9 |
| 20260506025721 | 56 | 231 | 0.0 | 0.0 | 0.00 | 0.02 | 0.02 | 87 | 1009.0 |
| 20260506025217 | 57 | 231 | 0.0 | 0.0 | 0.00 | 0.02 | 0.02 | 86 | 1009.0 |
| 20260506024714 | 57 | 231 | 0.0 | 0.0 | 0.00 | 0.02 | 0.02 | 85 | 1009.0 |
| 20260506024211 | 57 | 231 | 0.0 | 0.0 | 0.00 | 0.02 | 0.02 | 85 | 1008.9 |
| 20260506023707 | 57 | 231 | 0.0 | 0.0 | 0.00 | 0.02 | 0.02 | 85 | 1009.1 |
| 20260506023205 | 57 | 231 | 0.0 | 0.0 | 0.00 | 0.02 | 0.02 | 87 | 1009.1 |
| 20260506022701 | 58 | 206 | 0.0 | 0.0 | 0.00 | 0.02 | 0.02 | 86 | 1009.1 |
| 20260506022159 | 58 | 205 | 0.0 | 0.0 | 0.00 | 0.02 | 0.02 | 86 | 1009.2 |
| 20260506021657 | 58 | 205 | 0.0 | 0.0 | 0.00 | 0.02 | 0.02 | 87 | 1009.1 |
| 20260506021154 | 58 | 207 | 0.0 | 0.0 | 0.00 | 0.02 | 0.02 | 85 | 1009.1 |
| 20260506020651 | 58 | 207 | 0.0 | 0.0 | 0.00 | 0.02 | 0.02 | 85 | 1009.0 |
| 20260506020148 | 59 | 207 | 0.0 | 0.0 | 0.00 | 0.02 | 0.02 | 85 | 1009.1 |
| 20260506015646 | 58 | 223 | 0.0 | 0.0 | 0.00 | 0.02 | 0.02 | 83 | 1009.0 |
| 20260506015143 | 58 | 223 | 0.0 | 0.0 | 0.00 | 0.02 | 0.02 | 83 | 1008.7 |
| 20260506014640 | 58 | 223 | 0.0 | 0.0 | 0.00 | 0.02 | 0.02 | 84 | 1008.8 |
| 20260506014136 | 58 | 223 | 0.0 | 0.0 | 0.00 | 0.02 | 0.02 | 84 | 1008.9 |
| 20260506013634 | 58 | 223 | 0.0 | 0.0 | 0.00 | 0.02 | 0.02 | 84 | 1009.2 |
| 20260506013131 | 58 | 223 | 0.0 | 0.0 | 0.00 | 0.02 | 0.02 | 84 | 1009.0 |
| 20260506012627 | 58 | 223 | 0.0 | 0.0 | 0.00 | 0.02 | 0.02 | 84 | 1008.9 |
| 20260506012123 | 58 | 223 | 0.0 | 0.0 | 0.00 | 0.02 | 0.02 | 84 | 1008.7 |
| 20260506011621 | 58 | 223 | 0.0 | 0.0 | 0.00 | 0.02 | 0.02 | 84 | 1008.7 |
| 20260506011118 | 59 | 223 | 0.0 | 0.0 | 0.00 | 0.02 | 0.02 | 84 | 1008.8 |
| 20260506010612 | 59 | 223 | 0.0 | 0.0 | 0.00 | 0.02 | 0.02 | 84 | 1008.8 |
| 20260506010108 | 59 | 223 | 0.0 | 0.0 | 0.00 | 0.02 | 0.02 | 84 | 1008.6 |
| 20260506005605 | 59 | 223 | 0.0 | 0.0 | 0.00 | 0.02 | 0.02 | 84 | 1008.4 |
| 20260506005101 | 59 | 223 | 0.0 | 0.0 | 0.00 | 0.02 | 0.02 | 84 | 1008.4 |
| 20260506004558 | 59 | 223 | 0.0 | 0.0 | 0.00 | 0.02 | 0.02 | 85 | 1008.3 |
| 20260506004055 | 59 | 223 | 0.0 | 0.0 | 0.00 | 0.02 | 0.02 | 84 | 1008.4 |
| 20260506003551 | 59 | 223 | 0.0 | 0.0 | 0.00 | 0.02 | 0.02 | 85 | 1008.3 |
| 20260506003048 | 59 | 216 | 0.0 | 0.0 | 0.00 | 0.02 | 0.02 | 84 | 1008.6 |
| 20260506002543 | 59 | 217 | 0.0 | 0.0 | 0.00 | 0.02 | 0.02 | 85 | 1008.6 |
| 20260506002040 | 59 | 217 | 0.0 | 0.0 | 0.00 | 0.02 | 0.02 | 85 | 1008.4 |
| 20260506001536 | 59 | 216 | 0.0 | 0.0 | 0.00 | 0.02 | 0.02 | 85 | 1008.3 |
| 20260506001033 | 59 | 217 | 0.0 | 0.0 | 0.00 | 0.02 | 0.02 | 87 | 1008.6 |
| 20260506000531 | 60 | 217 | 0.0 | 0.0 | 0.00 | 0.02 | 0.02 | 87 | 1008.6 |
| 20260506000028 | 60 | 217 | 0.0 | 0.0 | 0.00 | 0.02 | 0.02 | 86 | 1008.4 |
| 20260505235520 | 60 | 217 | 0.0 | 0.0 | 0.00 | 0.02 | 0.02 | 85 | 1008.4 |
| 20260505235017 | 60 | 217 | 0.0 | 0.0 | 0.00 | 0.02 | 0.02 | 86 | 1008.3 |
| 20260505234514 | 60 | 217 | 0.0 | 0.0 | 0.00 | 0.02 | 0.02 | 85 | 1008.6 |
| 20260505234011 | 60 | 217 | 0.0 | 0.0 | 0.00 | 0.02 | 0.02 | 86 | 1008.4 |
| 20260505233508 | 60 | 217 | 0.0 | 0.0 | 0.00 | 0.02 | 0.02 | 85 | 1008.3 |
| 20260505233006 | 61 | 217 | 0.0 | 0.0 | 0.00 | 0.02 | 0.02 | 84 | 1008.4 |
| 20260505232504 | 61 | 184 | 0.0 | 0.0 | 0.00 | 0.02 | 0.02 | 83 | 1008.3 |
| 20260505232001 | 61 | 233 | 0.0 | 0.0 | 0.00 | 0.02 | 0.02 | 83 | 1008.6 |
| 20260505231457 | 61 | 216 | 0.0 | 0.0 | 0.00 | 0.02 | 0.02 | 82 | 1008.2 |
| 20260505230956 | 62 | 258 | 0.0 | 0.0 | 0.00 | 0.02 | 0.02 | 82 | 1008.3 |
| 20260505230453 | 62 | 271 | 0.0 | 1.7 | 0.00 | 0.02 | 0.02 | 80 | 1008.1 |
| 20260505225949 | 63 | 245 | 0.0 | 0.0 | 0.00 | 0.02 | 0.02 | 80 | 1007.9 |
| 20260505225446 | 62 | 35 | 0.0 | 0.9 | 0.00 | 0.02 | 0.02 | 76 | 1007.6 |
| 20260505224942 | 62 | 188 | 0.0 | 0.0 | 0.00 | 0.02 | 0.02 | 81 | 1007.8 |
| 20260505224439 | 61 | 288 | 0.0 | 0.0 | 0.00 | 0.02 | 0.02 | 85 | 1007.6 |
| 20260505223936 | 61 | 207 | 0.0 | 0.0 | 0.00 | 0.02 | 0.02 | 85 | 1007.8 |
| 20260505223433 | 62 | 210 | 0.0 | 0.0 | 0.00 | 0.02 | 0.02 | 83 | 1007.7 |
| 20260505222930 | 62 | 210 | 0.0 | 0.0 | 0.00 | 0.02 | 0.02 | 83 | 1007.9 |
| 20260505222426 | 62 | 210 | 0.0 | 0.0 | 0.00 | 0.02 | 0.02 | 80 | 1007.6 |
| 20260505221922 | 63 | 210 | 0.0 | 0.0 | 0.00 | 0.02 | 0.02 | 78 | 1007.7 |
| 20260505221420 | 63 | 196 | 0.0 | 0.0 | 0.00 | 0.02 | 0.02 | 78 | 1007.6 |
| 20260505220917 | 62 | 236 | 0.0 | 0.0 | 0.00 | 0.02 | 0.02 | 78 | 1007.6 |
| 20260505220413 | 62 | 253 | 0.0 | 0.0 | 0.00 | 0.02 | 0.02 | 78 | 1007.7 |
| 20260505215911 | 62 | 242 | 0.0 | 0.0 | 0.00 | 0.02 | 0.02 | 78 | 1007.7 |
| 20260505215409 | 62 | 247 | 0.0 | 0.0 | 0.00 | 0.02 | 0.02 | 81 | 1007.6 |
| 20260505214907 | 62 | 230 | 0.0 | 2.6 | 0.00 | 0.02 | 0.02 | 82 | 1007.7 |
| 20260505214404 | 61 | 189 | 0.0 | 2.6 | 0.00 | 0.02 | 0.02 | 80 | 1007.7 |
| 20260505213901 | 62 | 210 | 0.0 | 0.9 | 0.00 | 0.02 | 0.02 | 80 | 1008.1 |
| 20260505213359 | 62 | 242 | 0.0 | 0.0 | 0.00 | 0.02 | 0.02 | 82 | 1007.7 |
| 20260505212855 | 62 | 215 | 0.0 | 3.5 | 0.00 | 0.02 | 0.02 | 83 | 1007.5 |
| 20260505212352 | 63 | 238 | 0.0 | 0.9 | 0.00 | 0.02 | 0.02 | 78 | 1007.6 |
| 20260505211848 | 62 | 193 | 0.9 | 3.5 | 0.00 | 0.02 | 0.02 | 76 | 1007.7 |
| 20260505211345 | 62 | 119 | 3.5 | 5.2 | 0.00 | 0.02 | 0.02 | 87 | 1007.5 |
| 20260505210841 | 62 | 254 | 0.0 | 0.0 | 0.00 | 0.02 | 0.02 | 89 | 1007.5 |
| 20260505210339 | 62 | 235 | 0.0 | 0.0 | 0.00 | 0.02 | 0.02 | 88 | 1007.1 |
| 20260505205835 | 62 | 236 | 0.0 | 0.0 | 0.07 | 0.02 | 0.02 | 89 | 1007.2 |
| 20260505205334 | 62 | 233 | 0.0 | 0.0 | 0.07 | 0.02 | 0.02 | 87 | 1007.1 |
| 20260505204830 | 62 | 193 | 0.0 | 0.0 | 0.00 | 0.01 | 0.01 | 83 | 1007.2 |
| 20260505204328 | 64 | 255 | 0.0 | 0.0 | 0.05 | 0.01 | 0.01 | 77 | 1007.3 |
| 20260505203825 | 66 | 186 | 0.9 | 3.5 | 0.05 | 0.01 | 0.01 | 65 | 1007.3 |
| 20260505203321 | 70 | 207 | 2.6 | 6.1 | 0.00 | 0.00 | 0.00 | 48 | 1007.1 |
| 20260505202818 | 71 | 125 | 0.9 | 5.2 | 0.00 | 0.00 | 0.00 | 43 | 1006.3 |
| 20260505202314 | 71 | 181 | 0.9 | 3.5 | 0.00 | 0.00 | 0.00 | 41 | 1006.4 |
| 20260505201811 | 72 | 238 | 1.7 | 7.8 | 0.00 | 0.00 | 0.00 | 40 | 1006.3 |
| 20260505201309 | 72 | 273 | 0.0 | 6.1 | 0.00 | 0.00 | 0.00 | 41 | 1006.1 |
| 20260505200807 | 72 | 278 | 0.9 | 7.8 | 0.00 | 0.00 | 0.00 | 39 | 1006.1 |
| 20260505200303 | 73 | 226 | 3.5 | 7.8 | 0.00 | 0.00 | 0.00 | 39 | 1006.4 |
| 20260505195758 | 73 | 85 | 1.7 | 2.6 | 0.00 | 0.00 | 0.00 | 39 | 1006.2 |
| 20260505195257 | 73 | 74 | 0.9 | 2.6 | 0.00 | 0.00 | 0.00 | 39 | 1006.2 |
| 20260505194753 | 73 | 47 | 0.9 | 6.1 | 0.00 | 0.00 | 0.00 | 40 | 1006.3 |
| 20260505194250 | 74 | 347 | 0.9 | 12.2 | 0.00 | 0.00 | 0.00 | 38 | 1006.3 |
| 20260505193745 | 75 | 149 | 1.7 | 7.8 | 0.00 | 0.00 | 0.00 | 38 | 1006.3 |
| 20260505193243 | 75 | 150 | 7.0 | 8.7 | 0.00 | 0.00 | 0.00 | 38 | 1006.3 |
| 20260505192742 | 75 | 156 | 5.2 | 8.7 | 0.00 | 0.00 | 0.00 | 38 | 1006.4 |
| 20260505192239 | 75 | 234 | 1.7 | 5.2 | 0.00 | 0.00 | 0.00 | 38 | 1006.2 |
| 20260505191737 | 75 | 109 | 4.3 | 13.9 | 0.00 | 0.00 | 0.00 | 38 | 1006.3 |
| 20260505191235 | 74 | 96 | 3.5 | 8.7 | 0.00 | 0.00 | 0.00 | 40 | 1006.5 |
| 20260505190731 | 73 | 226 | 0.9 | 3.5 | 0.00 | 0.00 | 0.00 | 39 | 1006.5 |
| 20260505190226 | 73 | 48 | 1.7 | 3.5 | 0.00 | 0.00 | 0.00 | 41 | 1006.9 |
| 20260505185722 | 73 | 201 | 0.9 | 5.2 | 0.00 | 0.00 | 0.00 | 39 | 1006.5 |
| 20260505185219 | 74 | 94 | 2.6 | 3.5 | 0.00 | 0.00 | 0.00 | 39 | 1006.6 |
| 20260505184715 | 75 | 49 | 2.6 | 7.0 | 0.00 | 0.00 | 0.00 | 38 | 1007.0 |
| 20260505184213 | 75 | 238 | 2.6 | 8.7 | 0.00 | 0.00 | 0.00 | 40 | 1007.0 |
| 20260505183709 | 75 | 141 | 1.7 | 7.0 | 0.00 | 0.00 | 0.00 | 38 | 1006.6 |
| 20260505183207 | 75 | 140 | 2.6 | 9.6 | 0.00 | 0.00 | 0.00 | 39 | 1006.8 |
| 20260505182702 | 75 | 318 | 4.3 | 6.1 | 0.00 | 0.00 | 0.00 | 39 | 1007.0 |
| 20260505182200 | 75 | 77 | 0.9 | 3.5 | 0.00 | 0.00 | 0.00 | 42 | 1007.1 |
| 20260505181656 | 74 | 250 | 2.6 | 8.7 | 0.00 | 0.00 | 0.00 | 43 | 1007.1 |
| 20260505181154 | 75 | 161 | 3.5 | 9.6 | 0.00 | 0.00 | 0.00 | 41 | 1007.3 |
| 20260505180650 | 75 | 89 | 3.5 | 7.0 | 0.00 | 0.00 | 0.00 | 43 | 1007.3 |